TimeMDT,TemperatureF,Dew PointF,Humidity,Sea Level PressureIn,VisibilityMPH,Wind Direction,Wind SpeedMPH,Gust SpeedMPH,PrecipitationIn,Events,Conditions,WindDirDegrees,DateUTC
12:00 AM,-18,-22,69,30.10,,South,12.7,,,,,180,2012-11-01 06:00:00
12:00 AM,32.0,32.0,100,30.01,9.0,NE,4.6,-,N/A,,Overcast,40,2012-11-01 06:00:00
12:51 AM,32.0,30.2,93,29.99,9.0,NNE,5.8,-,N/A,,Overcast,20,2012-11-01 06:51:00
1:00 AM,32.0,32.0,100,29.99,9.0,NE,4.6,-,N/A,,Overcast,40,2012-11-01 07:00:00
1:48 AM,32.0,32.0,100,29.99,9.0,Variable,2.3,-,N/A,,Mostly Cloudy,0,2012-11-01 07:48:00
2:00 AM,32.0,32.0,100,29.98,9.0,North,3.5,-,N/A,,Mostly Cloudy,360,2012-11-01 08:00:00
2:14 AM,30.2,30.2,100,29.97,9.0,North,2.3,-,N/A,,Overcast,360,2012-11-01 08:14:00
3:00 AM,30.2,30.2,100,29.96,8.0,NNE,3.5,-,N/A,,Mostly Cloudy,20,2012-11-01 09:00:00
3:02 AM,30.2,30.2,100,29.96,8.0,NNE,4.6,-,N/A,,Scattered Clouds,20,2012-11-01 09:02:00
3:11 AM,32.0,32.0,100,29.96,8.0,NNE,4.6,-,N/A,,Mostly Cloudy,30,2012-11-01 09:11:00
4:00 AM,32.0,32.0,100,29.95,9.0,Calm,Calm,-,N/A,,Overcast,0,2012-11-01 10:00:00
4:50 AM,30.2,30.2,100,29.93,5.0,Variable,2.3,-,N/A,,Overcast,0,2012-11-01 10:50:00
4:58 AM,30.2,30.2,100,29.93,6.0,Variable,2.3,-,N/A,,Overcast,0,2012-11-01 10:58:00
5:00 AM,30.2,30.2,100,29.93,6.0,East,3.5,-,N/A,,Overcast,100,2012-11-01 11:00:00
5:37 AM,30.2,30.2,100,29.93,5.0,SSW,4.6,-,N/A,,Overcast,210,2012-11-01 11:37:00
6:00 AM,-17,-22,68,30.04,,South,9.2,,,,,170,2012-11-01 12:00:00
6:00 AM,30.2,30.2,100,29.92,3.0,Calm,Calm,-,N/A,,Overcast,0,2012-11-01 12:00:00
6:13 AM,30.2,30.2,100,29.93,2.2,Variable,2.3,-,N/A,,Overcast,0,2012-11-01 12:13:00
6:20 AM,30.2,30.2,100,29.93,2.0,SW,4.6,-,N/A,,Overcast,230,2012-11-01 12:20:00
6:26 AM,30.2,30.2,100,29.92,1.0,West,3.5,-,N/A,,Overcast,260,2012-11-01 12:26:00
7:00 AM,30.2,30.2,100,29.90,1.5,NNE,2.3,-,N/A,,Overcast,20,2012-11-01 13:00:00
8:00 AM,30.2,30.2,100,29.91,2.5,Calm,Calm,-,N/A,,Overcast,0,2012-11-01 14:00:00
9:00 AM,32.0,32.0,100,29.89,2.5,Variable,2.3,-,N/A,,Overcast,0,2012-11-01 15:00:00
10:00 AM,32.0,32.0,100,29.89,3.0,Calm,Calm,-,N/A,,Mostly Cloudy,0,2012-11-01 16:00:00
11:00 AM,33.8,33.8,100,29.88,6.0,East,3.5,-,N/A,,Mostly Cloudy,100,2012-11-01 17:00:00
12:00 PM,-18,-23,65,29.98,,South,12.7,,,,,170,2012-11-01 18:00:00
12:00 PM,37.4,35.6,93,29.87,15.0,East,4.6,-,N/A,,Mostly Cloudy,90,2012-11-01 18:00:00
1:00 PM,39.2,35.6,87,29.85,30.0,ENE,2.3,-,N/A,,Mostly Cloudy,60,2012-11-01 19:00:00
2:00 PM,41.0,35.6,81,29.84,30.0,NNE,3.5,-,N/A,,Mostly Cloudy,30,2012-11-01 20:00:00
3:00 PM,44.6,37.4,76,29.83,30.0,ENE,4.6,-,N/A,,Scattered Clouds,70,2012-11-01 21:00:00
4:00 PM,46.4,39.2,76,29.81,30.0,East,6.9,-,N/A,,Partly Cloudy,90,2012-11-01 22:00:00
5:00 PM,46.4,39.2,76,29.81,30.0,ESE,4.6,-,N/A,,Partly Cloudy,120,2012-11-01 23:00:00
6:00 PM,42.8,39.2,87,29.82,30.0,East,2.3,-,N/A,,Partly Cloudy,90,2012-11-02 00:00:00
7:00 PM,37.4,35.6,93,29.84,15.0,West,8.1,-,N/A,,Partly Cloudy,260,2012-11-02 01:00:00
8:00 PM,39.2,35.6,87,29.88,15.0,WSW,17.3,24.2,N/A,,Partly Cloudy,250,2012-11-02 02:00:00
8:21 PM,37.4,35.6,93,29.90,15.0,West,17.3,25.3,N/A,,Scattered Clouds,260,2012-11-02 02:21:00
8:25 PM,37.4,35.6,93,29.90,10.0,West,16.1,23.0,N/A,,Overcast,260,2012-11-02 02:25:00
8:42 PM,37.4,37.4,100,29.90,5.0,WSW,12.7,-,N/A,,Overcast,250,2012-11-02 02:42:00
9:00 PM,37.4,35.6,93,29.90,4.0,SW,9.2,23.0,N/A,,Overcast,230,2012-11-02 03:00:00
9:53 PM,33.8,33.8,100,29.93,2.5,NW,5.8,-,N/A,,Overcast,320,2012-11-02 03:53:00
10:00 PM,33.8,33.8,100,29.93,2.5,WNW,6.9,-,N/A,,Overcast,300,2012-11-02 04:00:00
10:11 PM,33.8,33.8,100,29.94,3.0,NW,8.1,-,N/A,,Overcast,310,2012-11-02 04:11:00
10:49 PM,33.8,33.8,100,29.95,2.5,WNW,8.1,-,N/A,,Overcast,290,2012-11-02 04:49:00
10:51 PM,33.8,33.8,100,29.95,2.0,WNW,10.4,-,N/A,,Overcast,290,2012-11-02 04:51:00
11:00 PM,33.8,33.8,100,29.95,1.5,WNW,8.1,-,N/A,,Overcast,300,2012-11-02 05:00:00